Simultaneous Nadir Overpasses (SNOs) Predictions

Prediction of SNOs between GOES-14 and NPP Satellite Orbit:

Table of predicted SNOs for the next 14.0 days since TLE Epoch: 2/5/2022
Index Date Time (GOES-14) GOES-14 Lat,Lon NPP Lat,Lon Distance(km) Time Diff (sec)
1 02/05/2022 08:20:28 0.02,-104.61 -0.25,-103.48 129.94 80
2 02/07/2022 20:20:59 -0.02,-104.33 0.03,-104.24 10.81 80
3 02/10/2022 08:24:04 0.02,-104.63 0.09,-105.00 42.17 80
4 02/11/2022 08:08:00 0.02,-104.63 -0.92,-100.47 474.72 80
5 02/12/2022 20:29:55 -0.02,-104.35 -0.35,-105.76 160.57 80
6 02/13/2022 20:08:31 -0.02,-104.35 0.65,-101.23 355.37 80
7 02/15/2022 08:30:20 0.01,-104.63 0.46,-106.51 215.05 80
8 02/16/2022 08:14:16 0.01,-104.64 -0.61,-101.99 301.90 80
9 02/17/2022 20:36:12 -0.01,-104.38 -0.65,-107.28 331.42 80
10 02/18/2022 20:14:47 -0.00,-104.37 0.36,-102.75 184.48 80
